Location: Newark
(12.4436°N, 0.6167°W)
Time: 03:01:08
(UTC+00:00)

Vanguard 1 - Pass Details

Date: 18 December 2019
Orbit: 650 x 3833 km, 34.2° (Epoch: 26 January)

Event Time Altitude Azimuth Distance (km) Brightness Sun altitude
Rises 10:43:28 0° 296° (WNW) 6,917 14.1 49.7°
Reaches altitude 10° 10:49:03 10° 291° (WNW) 5,398 13.7 50.3°
Maximum altitude 11:02:03 42° 226° (SW) 2,260 12.7 51.6°
Drops below altitude 10° 11:09:25 10° 156° (SSE) 3,086 13.5 52.2°
Sets 11:11:45 0° 148° (SSE) 3,777 13.6 52.4°
